Погода в Калиновке

Россия / Самарская область     53°50′02″N   51°17′54″E
темп.,
°C
ветер,
м/с
пор.,
м/с
влажн.,
%
обл.,
%
осадки,
мм/ч
давл.,
гПа
погр.,
м
20 апреля, вт
вт2001:00+3вюв612596 0.0 1028367
04:00+1в612520 0.0 1030398
07:00+1вюв612500 0.0 1031544
10:00+5вюв810360 0.0 1031952
13:00+8вюв79280 0.0 10301349
16:00+10юв892520 0.0 10291538
19:00+8вюв593426 0.0 1029353
22:00+5вюв6144133 0.0 1029421
21 апреля, ср
ср2101:00+3юв61548100 0.0 1029550
04:00+3юв81648100 0.0 1028572
07:00+3юв81748100 0.0 1027692
10:00+7ююв101537100 0.0 1027936
13:00+9ююв101433100 0.0 10251124
16:00+5ю71461100 0.4 10261012
19:00+3ююв91790100 2.3 1026828
22:00+2ююв81797100 6.8 1026770
22 апреля, чт
чт2201:00+3ююв71395100 0.9 1025758
04:00+4ююв71393100 1.5 1026601
07:00+4ююв71294100 1.6 1026581
10:00+5ююв61291100 1.8 1027542
13:00+6ю6985100 0.0 1027711
16:00+6ююв7989100 0.1 1027679
19:00+4ююв51091100 0.0 1028507
22:00+4ююв5990100 0.0 1028447
23 апреля, пт
пт2301:00+4ююв5995100 0.0 1027509
04:00+4ююв3698100 0.0 1027298
07:00+4юв2497100 0.0 1027223
10:00+7юв2385100 0.0 1027424
13:00+10вюв437299 0.0 1026826
16:00+11вюв4468100 0.0 1025938
19:00+10всв3577100 0.0 1024146
22:00+8св3683100 0.0 1023129
24 апреля, сб
сб2401:00+7св4984100 0.0 1020266
04:00+6вюв2695100 0.0 1019216
07:00+6всв3595100 0.0 1018310
10:00+7св3588100 0.1 1016457
13:00+7св3588100 0.6 1016432
16:00+7с3589100 1.1 1015405
19:00+7ссз2391100 0.1 1015212
22:00+6сз1192100 0.1 101424